Regional Weather Roundup
Issued by NWS Burlington, VT

Home | Current Version | Previous Version | Text Only | Print | Product List | Glossary On
Versions: 1 2 3 4 5 6 7 8 9 10 11 12 13 14 15 16 17 18 19 20 21 22 23 24 25 26 27 28 29 30 31 32 33 34 35 36 37 38 39 40 41 42 43 44 45 46 47 48 49 50
000
ASUS41 KBTV 230210
RWRBTV
VERMONT REGIONAL WEATHER ROUNDUP
NATIONAL WEATHER SERVICE BURLINGTON VT
1000 PM EDT FRI SEP 22 2017

NOTE: "FAIR" INDICATES FEW OR NO CLOUDS BELOW 12,000 FEET WITH NO
SIGNIFICANT WEATHER AND/OR OBSTRUCTIONS TO VISIBILITY.

* THESE REPORTS ARE NOT UNDER NWS QUALITY CONTROL AND/OR DO NOT
  REPORT WEATHER SUCH AS PRECIPITATION AND FOG.

VTZ001>019-230300-
_____VERMONT_____


CITY           SKY/WX    TMP DP  RH WIND       PRES   REMARKS
BURLINGTON     CLEAR     61  55  81 CALM      30.07F
MONTPELIER     CLEAR     54  51  90 CALM      30.14S
MORRISVILLE    CLEAR     50  49  96 SW3       30.11S
ST. JOHNSBURY*   N/A     56  51  84 MISG      30.08S
LYNDONVILLE*   FAIR      57  50  78 CALM      30.11F
MIDDLEBURY*    FAIR      57  54  89 CALM      30.08F
RUTLAND*       PTCLDY    60  57  89 SE3       30.10R
SPRINGFIELD    MOCLDY    64  57  78 NW3       30.09R
HIGHGATE*      FAIR      57  55  92 S3        30.07R
NEWPORT*       FAIR      53  51  94 S3        30.11R
BENNINGTON     CLEAR     59  56  89 S5        30.07R
SUTTON*          N/A     57 N/A N/A MISG        N/A

_____LAKE CHAMPLAIN_____


CITY           SKY/WX    TMP DP  RH WIND       PRES   REMARKS
BURTON ISLAND*   N/A     68  61  77 S1          N/A
COLCHESTER RF*   N/A     68  59  73 NW9         N/A
DIAMOND ISL*     N/A     64  57  77 SE2         N/A

$$

NYZ007-026>031-035-052-083-087-230300-
_____NORTHERN NEW YORK_____


CITY           SKY/WX    TMP DP  RH WIND       PRES   REMARKS
PLATTSBURGH    CLEAR     58  53  84 CALM      30.08R
SARANAC LAKE   CLEAR     46  45  96 CALM      30.12S
MASSENA        CLEAR     58  56  93 CALM      30.09R
OGDENSBURG*    FAIR      58  56  94 CALM      30.08S
POTSDAM*       CLEAR    N/A N/A N/A CALM      30.09R
WATERTOWN      CLEAR     57  56  96 E3        30.07F
FT DRUM        CLEAR     61  56  85 CALM      30.08F
ALBANY         PTCLDY    66  49  54 N7        30.06S
GLENS FALLS    CLEAR     56  52  86 CALM      30.07R

$$
NHZ002-005-011-230300-
_____NEW HAMPSHIRE_____


CITY           SKY/WX    TMP DP  RH WIND       PRES   REMARKS
LEBANON        CLOUDY    65  59  81 NE5       30.07R
KEENE          PTCLDY    59  51  75 CALM      30.06S
MT WASHINGTON  FOG       52  52 100 E17         N/A  VSB 1/8
PLYMOUTH       MOCLDY    60  55  86 CALM      30.08S
WHITEFIELD     CLEAR     54  46  74 CALM      30.10R

$$

_____REGIONAL QUEBEC LOCATIONS_____


CITY           SKY/WX    TMP DP  RH WIND       PRES   REMARKS
MONTREAL       CLEAR     68  57  68 W3        30.07R
QUEBEC CITY    CLEAR     61  54  77 CALM      30.06R
SHERBROOKE     CLEAR     54  50  87 E6        30.09R

_____REGIONAL ONTARIO LOCATIONS_____


CITY           SKY/WX    TMP DP  RH WIND       PRES   REMARKS
OTTAWA         CLEAR     64  55  72 SE3       30.07F

______KEY______
VSB  - VISIBILITY IN MILES
WCI  - WIND CHILL INDEX
HX   - HEAT INDEX
$$
NNNN




USA.gov is the U.S. government's official web portal to all federal, state and local government web resources and services.